Provincetown, Massachusetts, United States (02657)
Lat: 42.06N, Lon: 70.18W
Wx Zone: MAZ022
Local Info
Past Weather Observations for Today

NOTE: This archive is for the closest National Weather Service station to Provincetown. Information may differ from the station used for current weather conditions.

Click here for Long-term Archive

Time Weather Temperature Dewpoint Humidity Pressure Winds Precip Visibility
17:56
Clear
73°F / 23°C 52°F / 11°C 47% 30.01 in
(1016 mb)
SW 11.5 mph
(SW 19 kph)
- 10SM
16:56
Clear
75°F / 24°C 50°F / 10°C 41% 30.01 in
(1016 mb)
SW 12.7 mph
(SW 20 kph)
- 10SM
15:56
Clear
77°F / 25°C 50°F / 10°C 39% 29.98 in
(1015 mb)
SW 12.7 mph
(SW 20 kph)
- 10SM
14:56
Clear
79°F / 26°C 54°F / 12°C 42% 29.98 in
(1015 mb)
SW 12.7 mph
(SW 20 kph)
- 10SM
13:56
Clear
79°F / 26°C 55°F / 13°C 45% 29.98 in
(1015 mb)
Calm - 10SM
12:56
Clear
79°F / 26°C 54°F / 12°C 42% 29.98 in
(1015 mb)
SSE 11.5 mph
(SSE 19 kph)
-
11:56
Fair
79°F / 26°C N/A 42% 29.98 in
(1015 mb)
SW 12.7 mph
(SW 20 kph)
-
10:56
Fair
77°F / 25°C 57°F / 14°C 51% 30.01 in
(1016 mb)
Variable 6.9 mph
(Variable 11 kph)
- 10SM
09:56
Fair
N/A N/A N/A 30.01 in
(1016 mb)
SSW 8.1 mph
(SSW 13 kph)
- 10SM
08:56
Clear
75°F / 24°C 55°F / 13°C 50% 30.01 in
(1016 mb)
SW 6.9 mph
(SW 11 kph)
- 10SM
07:56
Clear
73°F / 23°C 55°F / 13°C 53% 30.01 in
(1016 mb)
W 4.6 mph
(W 7 kph)
- 10SM
06:56
Clear
70°F / 21°C 63°F / 17°C 78% 30.01 in
(1016 mb)
Calm - 10SM
05:56
Clear
61°F / 16°C 55°F / 13°C 83% 30.01 in
(1016 mb)
Calm - 10SM
05:49
Clear
59°F / 15°C N/A 88% 30.01 in
(1016 mb)
Calm - 10SM
05:42
Clear
Fog And Mist
57°F / 14°C 55°F / 13°C 94% 30.01 in
(1016 mb)
Calm - 1 1/2SM
04:56
Fair
57°F / 14°C 54°F / 12°C 88% 29.98 in
(1015 mb)
Calm - 10SM
03:56
Clear
57°F / 14°C 55°F / 13°C 94% 29.98 in
(1015 mb)
Calm - 10SM
02:56
Clear
61°F / 16°C 57°F / 14°C 88% 29.95 in
(1014 mb)
Calm - 10SM
01:56
Clear
63°F / 17°C 61°F / 16°C 94% 29.95 in
(1014 mb)
Calm - 10SM
00:56
Clear
64°F / 18°C 61°F / 16°C 88% 29.95 in
(1014 mb)
SSW 4.6 mph
(SSW 7 kph)
- 10SM
Time Weather Temperature Dewpoint Humidity Pressure Winds Precip Visibility


Weather for websites

WeatherForYou.com, LLC is not responsible for any damages or problems caused by this service. Current weather conditions are obtained from the closest station including government and personal stations which may have varying degrees of accuracy. Weather forecasts are derived from the NOAA NDFD. Like all things, this site belongs to Jesus Christ... He just trusts me to maintain it. If you have any questions or comments email webmaster@weatherforyou.com

Copyright © 2014, WeatherForYou.com LLC. All rights reserved.